Regional Weather Roundup
Issued by NWS Glasgow, MT

Home | Current Version | Previous Version | Text Only | Print | Product List | Glossary On
Versions: 1 2 3 4 5 6 7 8 9 10 11 12 13 14 15 16 17 18 19 20 21 22 23 24 25 26 27 28 29 30 31 32 33 34 35 36 37 38 39 40 41 42 43 44 45 46 47 48 49 50
000
ASUS45 KGGW 201815
RWRGGW
HOURLY WEATHER ROUNDUP FOR NORTHEAST MONTANA
NATIONAL WEATHER SERVICE GLASGOW MONTANA
1200 PM MDT WED AUG 20 2014

NOTE: "FAIR" INDICATES FEW OR NO CLOUDS BELOW 12,000 FEET WITH NO
SIGNIFICANT WEATHER AND/OR OBSTRUCTIONS TO VISISBILITY.

NORTHEAST MONTANA


CITY           SKY/WX    TMP DP  RH WIND       PRES   REMARKS
GLASGOW        CLOUDY    70  58  65 NW12      29.75R
6HR MIN TEMP:  62; 6HR MAX TEMP:  73; 6HR PCP: TRACE;

PLENTYWOOD       N/A     74  60  61 N12         N/A
WOLF POINT     CLOUDY    77  58  51 W9        29.72R
JORDAN           N/A     70  55  59 NW15      29.78S
WINNETT          N/A     74  58  57 S2          N/A
SIDNEY         CLOUDY    72  55  56 S9        29.72R
GLENDIVE       CLOUDY    70  55  60 S7        29.76R
MALTA            N/A     75  56  51 W8G16       N/A
SCOBEY           N/A     68  55  63 NW10      29.75R

FORT PECK REPORTS


CITY           SKY/WX    TMP DP  RH WIND       PRES   REMARKS
FORT PECK        N/A     68  60  75 W15         N/A
THE PINES        N/A     70  56  61 W7          N/A

SOUTHEAST MONTANA


CITY           SKY/WX    TMP DP  RH WIND       PRES   REMARKS
BILLINGS       CLOUDY    73  51  46 NW8       29.87S
MILES CITY     CLOUDY    73  56  54 W12       29.75R
BAKER          CLOUDY    72  53  51 NW12G17   29.76R
LIVINGSTON     MOSUNNY   75  43  31 W12       29.91S

CENTRAL MONTANA


CITY           SKY/WX    TMP DP  RH WIND       PRES   REMARKS
HAVRE          PTSUNNY   69  55  60 VRB3      29.82S
LEWISTOWN      PTSUNNY   75  45  34 N9        29.88S
GREAT FALLS    SUNNY     76  44  32 VRB3      29.84S
CUT BANK       PTSUNNY   70  50  49 NW8       29.86S
HELENA         MOSUNNY   78  44  29 VRB6      29.86F
BUTTE          MOSUNNY   70  40  33 VRB5      29.96F
BOZEMAN        SUNNY     71  47  42 NW3       29.92F

WESTERN MONTANA


CITY           SKY/WX    TMP DP  RH WIND       PRES   REMARKS
MISSOULA       CLOUDY    64  54  69 NW7       29.92S
KALISPELL      NOT AVBL

NORTH DAKOTA


CITY           SKY/WX    TMP DP  RH WIND       PRES   REMARKS
WILLISTON      CLOUDY    75  64  68 SE9       29.71R
DICKINSON      RAIN      72  66  81 SE3       29.71R
MINOT          PTSUNNY   81  66  60 N7        29.71S
BISMARCK       CLOUDY    78  67  68 SE9       29.72F

SOUTHERN SASKATCHEWAN


CITY           SKY/WX    TMP DP  RH WIND       PRES   REMARKS
REGINA         LGT RAIN  68  64  88 NW8       29.70R
MOOSE JAW      CLOUDY    70  63  78 W12       29.71R
ESTEVAN        CLOUDY    72  63  73 E6        29.68
SWIFT CURRENT  MOSUNNY   72  55  56 NW14G21   29.75R




USA.gov is the U.S. government's official web portal to all federal, state and local government web resources and services.